Regional Weather Roundup
Issued by NWS

Home | Current Version | Previous Version | Graphics & Text | Print | Product List | Glossary On
Versions: 1 2 3 4 5 6 7 8 9 10 11 12 13 14 15 16 17 18 19 20 21 22 23 24 25 26 27 28 29 30 31 32 33 34 35 36 37 38 39 40 41 42 43 44 45 46 47 48 49 50
614
ASUS43 KDTX 290610
RWRMI
MICHIGAN HOURLY REGIONAL WEATHER ROUNDUP
NATIONAL WEATHER SERVICE DETROIT/PONTIAC MI
ISSUED BY NATIONAL WEATHER SERVICE GRAND RAPIDS MI
200 AM EDT SAT JUL 29 2017

NOTE: "FAIR" INDICATES FEW OR NO CLOUDS BELOW 12,000 FEET WITH NO
SIGNIFICANT WEATHER AND/OR OBSTRUCTION TO VISIBILITY.

MIZ047>049-052>055-059>063-066>070-074>076-081>083-290700-
SOUTHEAST LOWER MICHIGAN

CITY           SKY/WX    TMP DP  RH WIND       PRES   REMARKS
ADRIAN         CLEAR     54  50  86 N8        30.01S
6HR MIN TEMP:  54; 6HR MAX TEMP:  74;

ALMA           CLEAR     54  47  78 NW3       30.07R
ANN ARBOR      CLEAR     56  52  86 N7        30.01R
BAD AXE        CLEAR     53  51  92 CALM      30.06S
6HR MIN TEMP:  53; 6HR MAX TEMP:  64;

DETROIT CITY   CLEAR     59  54  83 N7        30.02R
6HR MIN TEMP:  59; 6HR MAX TEMP:  71;

DETROIT        CLEAR     60  53  77 NE7       30.01R
6HR MIN TEMP:  60; 6HR MAX TEMP:  73;

FLINT          CLEAR     58  52  80 NE8       30.05R
6HR MIN TEMP:  57; 6HR MAX TEMP:  67;

GROSSE ILE     CLEAR     63  54  73 NE7       29.99S
6HR MIN TEMP:  63; 6HR MAX TEMP:  72;

HILLSDALE      MOCLDY    55  46  71 N3        30.02S
HOWELL         CLEAR     55  51  87 N3        30.04R
6HR MIN TEMP:  55; 6HR MAX TEMP:  68;


CITY           SKY/WX    TMP DP  RH WIND       PRES   REMARKS
JACKSON        LGT RAIN  56  49  77 N6        30.03S
6HR MIN TEMP:  56; 6HR MAX TEMP:  71; 6HR PCP: TRACE;

LANSING        CLEAR     54  48  80 N3        30.06R
6HR MIN TEMP:  54; 6HR MAX TEMP:  70;

MASON          CLEAR     54  51  90 N3        30.04S
MONROE         CLEAR     57  53  84 N6        30.00R
6HR MIN TEMP:  57; 6HR MAX TEMP:  71;

MT. CLEMENS    CLEAR     58  56  95 N8        30.00R
6HR MIN TEMP:  57; 6HR MAX TEMP:  68;

PONTIAC        CLEAR     58  55  90 NE9       30.02R
6HR MIN TEMP:  58; 6HR MAX TEMP:  69;

PORT HOPE        N/A     67  56  67 N13       30.03F
6HR MIN TEMP:  65; 6HR MAX TEMP:  67;

PORT HURON     CLEAR     64  59  82 N8        30.03R
TRI CITIES     CLEAR     57  53  86 N5        30.07R
6HR MIN TEMP:  57; 6HR MAX TEMP:  67;

YPSILANTI      CLEAR     58  53  84 NE7       30.02R
6HR MIN TEMP:  58; 6HR MAX TEMP:  74;

$$
MIZ043>046-050>051-056>058-064>065-071>073-077>080-290700-
SOUTHWEST LOWER MICHIGAN

CITY           SKY/WX    TMP DP  RH WIND       PRES   REMARKS
BATTLE CREEK   CLEAR     55  47  74 NE7       30.05S
6HR MIN TEMP:  55; 6HR MAX TEMP:  74;

BENTON HARBOR  CLEAR     61  45  55 NE6       30.04S
6HR MIN TEMP:  61; 6HR MAX TEMP:  72;

BIG RAPIDS     CLEAR     52  47  83 W5        30.09S
6HR MIN TEMP:  51; 6HR MAX TEMP:  72;

COLDWATER      CLEAR     55  50  82 N7        30.03S
6HR MIN TEMP:  55; 6HR MAX TEMP:  73;

HOLLAND        CLEAR     60  46  59 NE3       30.07R
6HR MIN TEMP:  60; 6HR MAX TEMP:  78;

GRAND RAPIDS   CLEAR     58  46  64 NE5       30.06S
6HR MIN TEMP:  58; 6HR MAX TEMP:  75;

KALAMAZOO      CLEAR     59  46  62 N6        30.05S
6HR MIN TEMP:  59; 6HR MAX TEMP:  76;

MARSHALL       CLEAR     55  50  82 CALM      30.04R
6HR MIN TEMP:  55; 6HR MAX TEMP:  72;

MOUNT PLEASANT CLEAR     57  46  67 N3        30.07R
6HR MIN TEMP:  55; 6HR MAX TEMP:  71;

MUSKEGON       PTCLDY    59  45  59 NE5       30.07S
6HR MIN TEMP:  59; 6HR MAX TEMP:  77;

STURGIS        CLEAR     55  48  77 N6        30.02F
6HR MIN TEMP:  55; 6HR MAX TEMP:  73;

$$
MIZ016>042-290700-
NORTHERN LOWER MICHIGAN

CITY           SKY/WX    TMP DP  RH WIND       PRES   REMARKS
ALPENA         CLEAR     57  51  80 NW3       30.08S
6HR MIN TEMP:  56; 6HR MAX TEMP:  72;

BEAVER ISLAND  CLEAR     54  53  99 CALM      30.12R
6HR MIN TEMP:  52; 6HR MAX TEMP:  71;

BELLAIRE       CLEAR     50  48  95 CALM      30.11R
6HR MIN TEMP:  49; 6HR MAX TEMP:  73;

CADILLAC       CLEAR     49  46  87 CALM      30.10S
CHARLEVOIX     CLEAR     57  55  92 CALM      30.13S
GAYLORD        CLEAR     51  46  83 CALM      30.11S
6HR MIN TEMP:  51; 6HR MAX TEMP:  70;

HOUGHTON LAKE  CLEAR     50  46  86 CALM      30.10S
6HR MIN TEMP:  49; 6HR MAX TEMP:  69;

MANISTEE       CLEAR     53  52  96 CALM      30.09S
OSCODA         CLEAR     55  50  85 N3        30.06R
6HR MIN TEMP:  55; 6HR MAX TEMP:  67;

PELLSTON       CLEAR     52  50  93 NW5       30.11S
6HR MIN TEMP:  50; 6HR MAX TEMP:  73;

TRAVERSE CITY  CLEAR     54  50  86 CALM      30.09S
6HR MIN TEMP:  53; 6HR MAX TEMP:  75;

LUDINGTON      PTCLDY    52  52  99 CALM      30.09R
6HR MIN TEMP:  52; 6HR MAX TEMP:  74;

$$
MIZ007>008-015-290700-
EASTERN UPPER MICHIGAN

CITY           SKY/WX    TMP DP  RH WIND       PRES   REMARKS
KINROSS        CLEAR     57  53  86 N5        30.11R
6HR MIN TEMP:  57; 6HR MAX TEMP:  70;

MACKINAC ISLAN CLEAR     59  54  83 N6        30.10S
6HR MIN TEMP:  58; 6HR MAX TEMP:  70;

NEWBERRY       CLEAR     55  51  88 NW3       30.12S
6HR MIN TEMP:  55; 6HR MAX TEMP:  68;

S. S. MARIE    CLEAR     61  50  67 NW3       30.10R
6HR MIN TEMP:  60; 6HR MAX TEMP:  72;

$$
MIZ004>006-011>014-085-290700-
CENTRAL UPPER MICHIGAN

CITY           SKY/WX    TMP DP  RH WIND       PRES   REMARKS
MANISTIQUE     CLEAR     52  49  89 CALM      30.11S
6HR MIN TEMP:  51; 6HR MAX TEMP:  68;

ESCANABA       CLEAR     52  51  97 NW3       30.12S
6HR MIN TEMP:  52; 6HR MAX TEMP:  71;

MENOMINEE      CLEAR     58  57  97 N3        30.12R
6HR MIN TEMP:  57; 6HR MAX TEMP:  73;

SAWYER-GWINN   CLEAR     49  47  93 NW5       30.14S
6HR MIN TEMP:  49; 6HR MAX TEMP:  70;

$$
MIZ001>003-009>011-084-290700-
WESTERN UPPER MICHIGAN

CITY           SKY/WX    TMP DP  RH WIND       PRES   REMARKS
IRON MOUNTAIN  CLEAR     53  48  83 CALM      30.13S
6HR MIN TEMP:  52; 6HR MAX TEMP:  75;

HOUGHTON       CLEAR     54  49  83 E5        30.11S
6HR MIN TEMP:  53; 6HR MAX TEMP:  71;

COPPER HARBOR    N/A     61  49  64 SW5       30.11R
6HR MIN TEMP:  60; 6HR MAX TEMP:  72;

IRONWOOD       PTCLDY    52  52 100 CALM      30.13S FOG
6HR MIN TEMP:  53; 6HR MAX TEMP:  76;

$$

ABBREVIATIONS USED IN REMARKS
   TC - TEMPERATURE IN CELSIUS
  WCI - WIND CHILL INDEX
   HX - HEAT INDEX
  VSB - VISIBILITY





USA.gov is the U.S. government's official web portal to all federal, state and local government web resources and services.